User: anonymous   Login
Location: Catstown
(52.4386°N, 7.2633°W)
Time: 20:42:30
(UTC+00:00)
Language:

Meteor 2-5 Rocket - Orbit

View from above orbital plane
View from above orbital plane
View from above satellite
View from above satellite

Ground track
Ground track

The orbit data is extracted from the following two-line orbital elements,

1 11608U 79095B   20333.41331343  .00000005  00000-0 -39773-5 0  9999
2 11608  81.2155  68.0209 0053606 221.1012 138.6114 14.06165859107180
Epoch (UTC): 28 November 2020 09:55:10
Eccentricity: 0.0053606
inclination: 81.2155°
perigee height: 833 km
apogee height: 911 km
right ascension of ascending node: 68.0209°
argument of perigee: 221.1012°
revolutions per day: 14.06165859
mean anomaly at epoch: 138.6114°
orbit number at epoch: 10718

The dashed part of the orbit path shows where the satellite is in the earth's shadow,  

DLR